User: anonymous   Login
Location: Unspecified
(0.0000°N, 0.0000°E)
Time: 05:32:30
(UTC+00:00)
Language:

TATIANA 2 - Orbit

View from above orbital plane
View from above orbital plane
View from above satellite
View from above satellite

Ground track
Ground track

The orbit data is extracted from the following two-line orbital elements,

1 35868U 09049D   18350.53101047  .00000011  00000-0  23483-4 0  9996
2 35868  98.3974 353.7676 0003768 345.3959  14.7111 14.22834190480068
Epoch (UTC): 16 December 2018 12:44:39
Eccentricity: 0.0003768
inclination: 98.3974°
perigee height: 813 km
apogee height: 818 km
right ascension of ascending node: 353.7676°
argument of perigee: 345.3959°
revolutions per day: 14.22834190
mean anomaly at epoch: 14.7111°
orbit number at epoch: 48006

The dashed part of the orbit path shows where the satellite is in the earth's shadow,  

DLR